Location: Bo?a Wola
(50.4192°N, 19.7966°E)
Time: 04:09:02
(UTC+00:00)

CZ-4C R/B - Pass Details

Date: 22 September 2024
Orbit: 519 x 1471 km, 63.4° (Epoch: 09 October)

Event Time Altitude Azimuth Distance (km) Brightness Sun altitude
Exits shadow 02:25:23 - 308° (NW) 2,790 4.7 -19.6°
Reaches altitude 10° 02:26:18 10° 314° (NW) 2,531 4.5 -19.5°
Maximum altitude 02:31:20 27° 11° (N) 1,856 4.3 -18.8°
Drops below altitude 10° 02:37:25 10° 67° (ENE) 3,110 6.4 -17.9°
Sets 02:41:01 0° 79° (ENE) 4,232 7.4 -17.4°
